FW9733 Weather Reports


Display with metric or nautical units.
time (UTC)temp
F
wind
direction
speed
MPH
gust
MPH
rain 1hr
in
rain 24hr
in
rain mn
in
humidity
%
barometer
mb
20260505083057 34 0 0.0 3.0 0.00 0.00 0.00 87 1014.0
20260505081558 34 211 0.0 1.0 0.00 0.00 0.00 86 1014.1
20260505080050 34 231 0.0 1.0 0.00 0.00 0.00 86 1014.2
20260505074550 34 0 0.0 1.0 0.00 0.00 0.00 86 1014.4
20260505073049 35 0 0.0 1.0 0.00 0.00 0.00 85 1014.6
20260505071552 35 0 0.0 1.0 0.00 0.00 0.00 83 1014.6
20260505070051 36 0 0.0 1.0 0.00 0.00 0.00 83 1014.7
20260505064550 36 0 0.0 1.0 0.00 0.00 0.00 82 1014.9
20260505063055 36 282 0.0 2.0 0.00 0.00 0.00 83 1015.0
20260505061553 36 0 0.0 1.0 0.00 0.00 0.00 81 1015.2
20260505060059 36 0 0.0 2.0 0.00 0.00 0.00 79 1015.3
20260505054557 36 331 0.0 1.0 0.00 0.00 0.00 80 1015.3
20260505053050 36 0 0.0 2.0 0.00 0.00 0.00 80 1015.4
20260505051550 36 0 0.0 3.0 0.00 0.00 0.00 82 1015.5
20260505041551 36 0 0.0 2.0 0.00 0.00 0.00 86 1015.5
20260505034551 37 0 0.0 3.0 0.00 0.00 0.00 81 1015.1
20260505033051 37 302 0.0 4.0 0.00 0.00 0.00 83 1015.2
20260505031555 37 0 0.0 3.0 0.00 0.00 0.00 80 1015.1
20260505030058 37 209 0.0 3.0 0.00 0.00 0.00 80 1015.1
20260505024553 37 266 0.0 4.0 0.00 0.00 0.00 77 1015.0
20260505023052 37 254 0.0 6.0 0.00 0.00 0.00 77 1015.1
20260505021547 37 0 0.0 3.0 0.00 0.00 0.00 76 1015.0
20260505020050 38 0 1.0 5.0 0.00 0.00 0.00 75 1015.1
20260505014601 38 297 0.0 3.0 0.00 0.00 0.00 75 1015.3
20260505013055 38 328 0.0 6.0 0.00 0.00 0.00 76 1015.4
20260505011553 38 89 0.0 3.0 0.00 0.00 0.00 76 1015.4
20260505010052 38 0 0.0 3.0 0.00 0.00 0.00 78 1015.6
20260505004554 39 23 0.0 3.0 0.00 0.00 0.00 78 1015.6
20260505003053 39 228 1.0 4.0 0.00 0.00 0.00 73 1015.5
20260505001551 40 318 0.0 3.0 0.00 0.00 0.00 71 1015.5
20260505000052 40 153 0.0 3.0 0.00 0.00 0.00 70 1015.5
20260504234551 41 316 1.0 4.0 0.00 0.00 0.00 67 1015.4
20260504233052 42 301 0.0 2.0 0.00 0.00 0.00 65 1015.5
20260504231557 42 0 0.0 4.0 0.00 0.00 0.00 65 1015.6
20260504230054 42 280 0.0 4.0 0.00 0.00 0.00 64 1015.7
20260504224548 43 150 1.0 3.0 0.00 0.00 0.00 63 1015.8
20260504223054 44 301 0.0 6.0 0.00 0.00 0.00 62 1016.2
20260504221552 44 279 0.0 6.0 0.00 0.00 0.00 61 1016.2
20260504220054 45 80 1.0 6.0 0.00 0.00 0.00 60 1016.2
20260504214602 46 208 0.0 5.0 0.00 0.00 0.00 60 1016.4
20260504213047 45 321 1.0 7.0 0.00 0.00 0.00 60 1016.5
20260504211551 47 340 0.0 6.0 0.00 0.00 0.00 57 1016.4
20260504210056 47 238 1.0 5.0 0.00 0.00 0.00 54 1016.4
20260504204607 48 0 1.0 4.0 0.00 0.00 0.00 50 1016.4
20260504203113 48 214 1.0 7.0 0.00 0.00 0.00 53 1016.2
20260504201548 49 201 1.0 4.0 0.00 0.00 0.00 51 1016.1
20260504200048 49 0 1.0 4.0 0.00 0.00 0.00 54 1016.1
20260504194546 48 244 1.0 6.0 0.00 0.00 0.00 52 1016.3
20260504193050 49 292 2.0 7.0 0.00 0.00 0.00 46 1016.0
20260504191553 51 11 0.0 4.0 0.00 0.00 0.00 38 1015.7
20260504190053 49 0 1.0 6.0 0.00 0.00 0.00 34 1015.9
20260504184554 51 297 1.0 4.0 0.00 0.00 0.00 32 1015.9
20260504183104 51 240 1.0 5.0 0.00 0.00 0.00 30 1015.9
20260504181552 52 333 0.0 4.0 0.00 0.00 0.00 29 1015.8
20260504180105 52 295 1.0 6.0 0.00 0.00 0.00 27 1015.5
20260504174549 51 147 1.0 3.0 0.00 0.00 0.00 28 1015.3
20260504173058 48 316 2.0 8.0 0.00 0.00 0.00 30 1015.3
20260504171556 48 319 1.0 6.0 0.00 0.00 0.00 31 1015.2